When you browse on this site, cookies collect data to enhance your experience and personalize the content and advertising you see.
Visit our Privacy Policy to learn more. By continuing to use the site, you agree to this use of cookies and data.
EN

Hourly Weather Addanki

Today, 11 August, Tuesday

Time Temperature Precipitation Wind Pressure Humidity
00:00 +28°C° 0.1 mm 3 mps 750 mmHg 83%
01:00 +28°C° 0.1 mm 3 mps 749 mmHg 84%
02:00 +27°C° 0.1 mm 3 mps 749 mmHg 86%
03:00 +27°C° 0 mm 3 mps 749 mmHg 85%
04:00 +27°C° 0 mm 3 mps 749 mmHg 85%
05:00 +28°C° 0 mm 4 mps 749 mmHg 87%
06:00 +28°C° 0.3 mm 4 mps 750 mmHg 83%
07:00 +29°C° 0.3 mm 5 mps 750 mmHg 78%
08:00 +30°C° 0.3 mm 5 mps 750 mmHg 74%
09:00 +32°C° 0.1 mm 6 mps 750 mmHg 71%
10:00 +33°C° 0.1 mm 6 mps 751 mmHg 67%
11:00 +34°C° 0.1 mm 6 mps 751 mmHg 63%
12:00 +34°C° 0.2 mm 6 mps 750 mmHg 61%
13:00 +35°C° 0.2 mm 6 mps 749 mmHg 59%
14:00 +35°C° 0.2 mm 6 mps 748 mmHg 57%
15:00 +35°C° 1.1 mm 6 mps 748 mmHg 60%
16:00 +34°C° 1.1 mm 5 mps 748 mmHg 63%
17:00 +34°C° 1.1 mm 5 mps 748 mmHg 66%
18:00 +33°C° 0.2 mm 4 mps 749 mmHg 69%
19:00 +32°C° 0.2 mm 4 mps 750 mmHg 72%
20:00 +30°C° 0.2 mm 3 mps 750 mmHg 74%
21:00 +30°C° 0 mm 3 mps 750 mmHg 75%
22:00 +30°C° 0 mm 3 mps 751 mmHg 76%
23:00 +30°C° 0 mm 3 mps 751 mmHg 76%

Tomorrow, 12 August, Wednesday

Time Temperature Precipitation Wind Pressure Humidity
00:00 +30°C° 0 mm 3 mps 751 mmHg 76%
01:00 +29°C° 0 mm 4 mps 750 mmHg 76%
02:00 +29°C° 0 mm 4 mps 750 mmHg 76%
03:00 +29°C° 0 mm 4 mps 750 mmHg 75%
04:00 +29°C° 0 mm 4 mps 750 mmHg 75%
05:00 +29°C° 0 mm 5 mps 750 mmHg 75%
06:00 +29°C° 0 mm 5 mps 750 mmHg 74%
07:00 +29°C° 0 mm 4 mps 751 mmHg 74%
08:00 +29°C° 0 mm 4 mps 751 mmHg 74%
09:00 +30°C° 0 mm 5 mps 752 mmHg 69%
10:00 +33°C° 0 mm 6 mps 752 mmHg 64%
11:00 +34°C° 0 mm 7 mps 752 mmHg 59%
12:00 +34°C° 0 mm 7 mps 751 mmHg 58%
13:00 +35°C° 0 mm 7 mps 750 mmHg 57%
14:00 +35°C° 0 mm 7 mps 750 mmHg 56%
15:00 +34°C° 0.2 mm 6 mps 750 mmHg 58%
16:00 +34°C° 0.2 mm 6 mps 750 mmHg 60%
17:00 +33°C° 0.2 mm 5 mps 749 mmHg 62%
18:00 +33°C° 0.3 mm 5 mps 750 mmHg 65%
19:00 +32°C° 0.3 mm 4 mps 751 mmHg 68%
20:00 +30°C° 0.3 mm 3 mps 751 mmHg 70%
21:00 +30°C° 0 mm 3 mps 751 mmHg 71%
22:00 +30°C° 0 mm 3 mps 752 mmHg 72%
23:00 +29°C° 0 mm 3 mps 752 mmHg 74%

Day after tomorrow, 13 August, Thursday

Time Temperature Precipitation Wind Pressure Humidity
00:00 +29°C° 0 mm 3 mps 751 mmHg 74%
01:00 +29°C° 0 mm 3 mps 750 mmHg 74%
02:00 +29°C° 0 mm 3 mps 750 mmHg 74%
03:00 +29°C° 0 mm 3 mps 750 mmHg 74%
04:00 +29°C° 0 mm 3 mps 750 mmHg 74%
05:00 +29°C° 0 mm 3 mps 750 mmHg 74%
06:00 +29°C° 0 mm 4 mps 750 mmHg 73%
07:00 +29°C° 0 mm 4 mps 751 mmHg 72%
08:00 +30°C° 0 mm 5 mps 751 mmHg 70%
09:00 +30°C° 0 mm 5 mps 751 mmHg 68%
10:00 +32°C° 0 mm 5 mps 751 mmHg 65%
11:00 +32°C° 0 mm 6 mps 751 mmHg 63%
12:00 +33°C° 0.2 mm 6 mps 750 mmHg 60%
13:00 +34°C° 0.2 mm 6 mps 749 mmHg 57%
14:00 +35°C° 0.2 mm 7 mps 749 mmHg 54%
15:00 +34°C° 0.2 mm 6 mps 749 mmHg 57%
16:00 +34°C° 0.2 mm 5 mps 748 mmHg 60%
17:00 +33°C° 0.2 mm 5 mps 748 mmHg 62%
18:00 +32°C° 0.3 mm 4 mps 749 mmHg 65%
19:00 +32°C° 0.3 mm 4 mps 749 mmHg 68%
20:00 +30°C° 0.3 mm 3 mps 750 mmHg 71%
21:00 +30°C° 0.1 mm 3 mps 750 mmHg 72%
22:00 +30°C° 0.1 mm 3 mps 750 mmHg 72%
23:00 +29°C° 0.1 mm 3 mps 750 mmHg 73%

14 August, Friday

Time Temperature Precipitation Wind Pressure Humidity
00:00 +29°C° 0 mm 3 mps 750 mmHg 73%
01:00 +29°C° 0 mm 3 mps 749 mmHg 73%
02:00 +29°C° 0 mm 3 mps 749 mmHg 74%
03:00 +29°C° 0 mm 3 mps 749 mmHg 75%
04:00 +28°C° 0 mm 3 mps 749 mmHg 75%
05:00 +28°C° 0 mm 3 mps 749 mmHg 76%
06:00 +29°C° 0 mm 3 mps 750 mmHg 74%
07:00 +29°C° 0 mm 4 mps 750 mmHg 73%
08:00 +29°C° 0 mm 4 mps 751 mmHg 71%
09:00 +30°C° 0 mm 5 mps 750 mmHg 68%
10:00 +32°C° 0 mm 5 mps 750 mmHg 65%
11:00 +32°C° 0 mm 6 mps 750 mmHg 62%
12:00 +32°C° 0 mm 6 mps 749 mmHg 63%
13:00 +32°C° 0 mm 6 mps 749 mmHg 63%
14:00 +32°C° 0 mm 6 mps 748 mmHg 64%
15:00 +32°C° 0 mm 5 mps 748 mmHg 65%
16:00 +30°C° 0 mm 4 mps 748 mmHg 67%
17:00 +30°C° 0 mm 4 mps 748 mmHg 68%
18:00 +30°C° 0 mm 3 mps 748 mmHg 69%
19:00 +30°C° 0 mm 3 mps 749 mmHg 70%
20:00 +29°C° 0 mm 3 mps 750 mmHg 71%
21:00 +29°C° 0 mm 3 mps 750 mmHg 72%
22:00 +29°C° 0 mm 3 mps 750 mmHg 73%
23:00 +29°C° 0 mm 3 mps 750 mmHg 73%

15 August, Saturday

Time Temperature Precipitation Wind Pressure Humidity
00:00 +29°C° 0 mm 3 mps 749 mmHg 74%
01:00 +29°C° 0 mm 3 mps 749 mmHg 74%
02:00 +28°C° 0 mm 3 mps 748 mmHg 74%
03:00 +28°C° 0 mm 3 mps 749 mmHg 75%
04:00 +28°C° 0 mm 3 mps 749 mmHg 75%
05:00 +28°C° 0 mm 2 mps 749 mmHg 76%
06:00 +28°C° 0 mm 3 mps 749 mmHg 75%
07:00 +29°C° 0 mm 3 mps 750 mmHg 74%
08:00 +29°C° 0 mm 4 mps 750 mmHg 73%
09:00 +29°C° 0 mm 4 mps 750 mmHg 70%
10:00 +30°C° 0 mm 4 mps 750 mmHg 68%
11:00 +30°C° 0 mm 5 mps 750 mmHg 65%
12:00 +32°C° 0 mm 5 mps 749 mmHg 64%
13:00 +32°C° 0 mm 5 mps 749 mmHg 62%
14:00 +33°C° 0 mm 5 mps 748 mmHg 60%
15:00 +32°C° 0.3 mm 5 mps 748 mmHg 62%
16:00 +32°C° 0.3 mm 4 mps 748 mmHg 63%
17:00 +32°C° 0.3 mm 4 mps 748 mmHg 65%
18:00 +30°C° 0.5 mm 3 mps 749 mmHg 66%
19:00 +30°C° 0.5 mm 2 mps 749 mmHg 67%
20:00 +30°C° 0.5 mm 1 mps 750 mmHg 69%
21:00 +30°C° 0 mm 2 mps 750 mmHg 69%
22:00 +30°C° 0 mm 2 mps 750 mmHg 70%
23:00 +30°C° 0 mm 2 mps 750 mmHg 70%

16 August, Sunday

Time Temperature Precipitation Wind Pressure Humidity
00:00 +30°C° 0.1 mm 2 mps 750 mmHg 71%
01:00 +29°C° 0.1 mm 2 mps 749 mmHg 72%
02:00 +29°C° 0.1 mm 3 mps 749 mmHg 73%
03:00 +29°C° 0 mm 3 mps 749 mmHg 73%
04:00 +28°C° 0 mm 3 mps 749 mmHg 74%
05:00 +28°C° 0 mm 3 mps 749 mmHg 74%
06:00 +29°C° 0 mm 4 mps 750 mmHg 72%
07:00 +29°C° 0 mm 5 mps 750 mmHg 69%
08:00 +30°C° 0 mm 6 mps 751 mmHg 66%
09:00 +32°C° 0 mm 6 mps 751 mmHg 62%
10:00 +33°C° 0 mm 6 mps 751 mmHg 59%
11:00 +34°C° 0 mm 7 mps 751 mmHg 55%
12:00 +35°C° 0 mm 7 mps 750 mmHg 53%
13:00 +36°C° 0 mm 7 mps 749 mmHg 51%
14:00 +36°C° 0 mm 7 mps 749 mmHg 49%
15:00 +36°C° 0 mm 6 mps 748 mmHg 50%
16:00 +36°C° 0 mm 5 mps 748 mmHg 51%
17:00 +36°C° 0 mm 4 mps 748 mmHg 51%
18:00 +35°C° 0 mm 3 mps 749 mmHg 54%
19:00 +34°C° 0 mm 2 mps 749 mmHg 58%
20:00 +33°C° 0 mm 1 mps 750 mmHg 61%
21:00 +32°C° 0 mm 2 mps 750 mmHg 62%
22:00 +32°C° 0 mm 2 mps 750 mmHg 64%
23:00 +31°C° 0 mm 3 mps 750 mmHg 65%
Show more